Regional Weather Roundup
Issued by NWS Cleveland, OH

Home | Current Version | Previous Version | Graphics & Text | Print | Product List | Glossary On
Versions: 1 2 3 4 5 6 7 8 9 10 11 12 13 14 15 16 17 18 19 20 21 22 23 24 25 26 27 28 29 30 31 32 33 34 35 36 37 38 39 40 41 42 43 44 45 46 47 48 49 50
000
ASUS41 KCLE 260700
RWRCLE
OHIO REGIONAL WEATHER ROUNDUP
NATIONAL WEATHER SERVICE WILMINGTON, OH
200 AM EST FRI DEC 26 2014

NOTE: "FAIR" INDICATES FEW OR NO CLOUDS BELOW 12,000 FEET WITH NO
SIGNIFICANT WEATHER AND/OR OBSTRUCTIONS TO VISIBILITY.

OHZ001>008-015>018-024>027-034-035-043-044-260800-
   NORTHWEST OHIO

CITY           SKY/WX    TMP DP  RH WIND       PRES   REMARKS
DEFIANCE       CLEAR     33  29  85 S7        30.14S WCI  27
FINDLAY        CLEAR     33  28  81 S10       30.14R WCI  25
TOLEDO EXPRESS PTCLDY    32  29  88 S7        30.15R WCI  26
TOLEDO METCALF PTCLDY    34  29  82 S9        30.16R WCI  27
LIMA           CLEAR     35  30  82 S8        30.14S WCI  29
$$

OHZ009>014-019>023-028>033-038-089-260800-
   NORTHEAST OHIO

CITY           SKY/WX    TMP DP  RH WIND       PRES   REMARKS
CLE-HOPKINS    PTCLDY    35  29  78 S8        30.19R WCI  29
CLE-LAKEFRONT  CLEAR     37  29  72 S12       30.17R
CUY CO. ARPT   NOT AVBL
LORAIN-ELYRIA  CLEAR     33  29  85 S9        30.17R WCI  25
ASHTABULA      CLEAR     32  27  81 S3        30.17S
AKRON-CANTON   PTCLDY    35  27  72 SW8       30.18R WCI  29
WOOSTER        NOT AVBL
MANSFIELD      CLEAR     32  29  88 S10       30.16R WCI  24
YOUNGSTOWN     CLOUDY    36  28  73 SW9       30.15F
$$

OHZ042-051>053-060>062-070>072-077>081-260800-
  SOUTHWEST OHIO

CITY           SKY/WX    TMP DP  RH WIND       PRES   REMARKS
CINC-COVINGTON CLEAR     31  26  82 S5        30.17S WCI  26
CINC-LUNKEN    CLEAR     26  26 100 CALM      30.21S FOG
HAMILTON       CLEAR     28  27  96 E5        30.19R WCI  23
DAYTON         NOT AVBL
WRIGHT-PAT AFB CLEAR     30  28  91 S2        30.17S
DAYTON GENERAL CLEAR     31  29  92 S8        30.17R WCI  23
WILMINGTON     CLEAR     32  28  85 S7        30.18R WCI  26
$$

OHZ036-037-039>041-045>050-054>059-063>069-073>076-082>088-260800-
  CENTRAL AND SOUTHEAST OHIO

CITY           SKY/WX    TMP DP  RH WIND       PRES   REMARKS
COLUMBUS       CLEAR     32  28  85 SE6       30.19S WCI  26
OSU AIRPORT    CLEAR     32  28  85 S7        30.18S WCI  26
BOLTON FIELD   NOT AVBL
RICKENBACK AFB NOT AVBL
NEWARK         CLEAR     34  28  79 S3        30.19R
MARION         CLEAR     33  28  81 S9        30.17R WCI  25
LANCASTER      CLEAR     29  26  89 SE6       30.21R WCI  23
ZANESVILLE     CLEAR     31  26  82 S5        30.21R WCI  26
NEW PHILLY     MOCLDY    36  28  73 CALM      30.21R
$$


USA.gov is the U.S. government's official web portal to all federal, state and local government web resources and services.